Notices

What's New in latest Release from April 7th, 2021:

- Updated Glossary, including Speed of Maximum Gust, and Total Hourly Precipitation

- Updated national and regional climate services offices contacts and prices information

- Addition of station inventory lists for 1981-2010, 1971-2000, and 1961-1990 Normals.

If you haven't already, please take our survey and provide feedback about our website: https://eccc.sondage-survey.ca/f/LanguageSelection.aspx?s=442ca660-fcf1-47c0-95a9-59707d6fd709

Hourly Data Report for April 09, 2021

ALGONQUIN PARK EAST GATE
ONTARIO
Current Station Operator: ECCC - MSC

45°32'00.000" N
78°16'00.000" W
397.00 m
6080192
71581
TNK

Download Data

Hourly Data (April 2021)
Hourly Data Report for April 9, 2021
TIME
LST
Temp Definition
°C
Dew Point Definition
°C
Rel Hum Definition
%
Precip. Amount Definition
mm

Wind Dir Definition
10's deg

Wind Spd Definition
km/h
Visibility Definition
km
Stn Press Definition
kPa
Hmdx Definition


Wind Chill Definition


Weather Definition


00:00 4.6 2.2 84 0.0   0   96.64     LegendNANA
01:00 3.8 1.5 85 0.0   0   96.60     LegendNANA
02:00 3.4 1.0 84 0.0 0 1   96.57     LegendNANA
03:00 2.8 0.9 88 0.0   0   96.55     LegendNANA
04:00 2.2 0.4 88 0.0   0   96.53     LegendNANA
05:00 2.1 0.5 89 0.0 0 1   96.54     LegendNANA
06:00 2.6 0.8 88 0.0   0   96.59     LegendNANA
07:00 5.4 3.1 85 0.0 11 2   96.63     LegendNANA
08:00 8.8 5.6 80 0.0 0 1   96.63     LegendNANA
09:00 14.9 6.5 57 0.0 15 6   96.64     LegendNANA
10:00 16.5 6.1 50 0.0 14 8   96.64     LegendNANA
11:00 15.4 6.3 55 0.0 16 5   96.65     LegendNANA
12:00 15.8 6.6 54 0.0 12 6   96.65     LegendNANA
13:00 15.2 6.8 57 0.0 13 5   96.66     LegendNANA
14:00 16.1 7.2 56 0.0 15 8   96.62     LegendNANA
15:00 16.5 7.4 55 0.0 13 7   96.60     LegendNANA
16:00 15.7 7.7 59 0.0 14 8   96.60     LegendNANA
17:00 14.5 8.1 65 0.0 14 7   96.64     LegendNANA
18:00 13.9 8.7 71 0.0 13 3   96.61     LegendNANA
19:00 11.6 7.8 77 0.0 18 2   96.61     LegendNANA
20:00 8.4 6.5 88 0.0   0   96.64     LegendNANA
21:00 6.6 5.1 90 0.0   0   96.66     LegendNANA
22:00 5.3 4.0 91 0.0   0   96.63     LegendNANA
23:00 4.2 2.9 92 0.0   0   96.60     LegendNANA

Notes on Data Quality.

Legend

  • E = Estimated
  • M = Missing
  • NA = Not Available*
  • [empty] = Indicates an unobserved value
Date modified: